HXMT (HUIYAN) (42758 NORAD) Tracking and Keplerian Element Data

This shows tracking and keplerian element data for the satellite.

Feedback or suggestion? Click here.




ElementValue
Catalog42758
NameHXMT (HUIYAN)
Epoch Orbit40469
Epoch Day286.85488561
Epoch Year2024
RAAN342.3272
Inclination43.0157
Eccentricity0.0011377
Argument of Perigee174.7197
Mean Anonmoly185.3773
Mean Motion15.17760983
Decay Rate0.00019056
L11 42758U 17034A 24286.85488561 .00019056 00000+0 93404-3 0 9991
L22 42758 43.0157 342.3272 0011377 174.7197 185.3773 15.17760983404690



Live tracking and technical data element details for HXMT (HUIYAN) (NORAD 42758). HXMT (HUIYAN) can be tracked NOW for your location showing map with azimuth and elevation plus other details from your city location.







IsCatalogInMostPopularTable: catalog: 42758, numindb: 662
Update: records affected: 1



GetName: 42758 HXMT (HUIYAN)

Hit Count: updated at: Thu, 23 Jan 2025 14:31:29 GMT